Home   Weather   Zárate   Past weeks

Flag for Argentina Past Weather in Zárate, Buenos Aires, Argentina — Yesterday and Last 2 Weeks

Now
55 °F

Overcast.


Feels Like: 51 °F
Forecast: 52 / 65 °F
Wind: 18 mph from East

Location: Buenos Aires Airport

Current Time: Sep 30, 2016 at 3:51:54 AM

Latest Report: Sep 30, 2016 at 3:00 AM


Visibility: N/A

Pressure: 30.15 "Hg

Humidity: 67%

Dew Point: 45 °F

Location of ZárateLocation

Past Weather in Zárate — Graph

°F

Zárate Temperature Yesterday

Maximum temperature yesterday: 57 °F (at 10:00 AM)
Minimum temperature yesterday: 52 °F (at 2:00 AM)
Average temperature yesterday: 55 °F

High & Low Weather Summary for the Past Weeks

 TemperatureHumidityPressure
High81 °F (Sep 22, 5:00 PM)88% (Sep 16, 7:00 AM)30.39 "Hg (Sep 16, 7:00 AM)
Low45 °F (Sep 24, 5:00 AM)32% (Sep 24, 3:00 PM)29.89 "Hg (Sep 17, 4:00 AM)
Average59 °F69%30.15 "Hg
* Reported Sep 15 2:00 AM — Sep 30 2:00 AM, Zárate, Weather by CustomWeather, © 2016

Note: Actual official high and low records may vary slightly from our data, if they occured in-between our weather recording intervals... More about our weather records

Advertising

Zárate Weather History for the Previous 24 Hours

Scroll right to see more
 ConditionsComfort  
Time TempWeatherWind HumidityBarometerVisibility
2:00 AM
Fri, Sep 30
55 °FOvercast.15 mph72%30.21 "HgN/A
1:00 AM55 °FOvercast.24 mph72%30.18 "HgN/A
12:00 AM55 °FMostly cloudy.18 mph77%30.18 "HgN/A
11:00 PM
Thu, Sep 29
57 °FMostly cloudy.20 mph72%30.18 "HgN/A
10:00 PM57 °FPartly cloudy.21 mph72%30.21 "HgN/A
9:00 PM57 °FPartly cloudy.22 mph72%30.21 "HgN/A
8:00 PM55 °FPassing clouds.22 mph77%30.18 "HgN/A
7:00 PM55 °FMostly cloudy.17 mph77%30.18 "HgN/A
6:00 PM55 °FMore clouds than sun.20 mph72%30.21 "HgN/A
5:00 PM55 °FMore clouds than sun.16 mph72%30.21 "HgN/A
4:00 PM57 °FMostly cloudy.16 mph63%30.21 "HgN/A
2:00 PM57 °FBroken clouds.16 mph63%30.27 "HgN/A
1:00 PM57 °FPartly sunny.15 mph63%30.27 "HgN/A
12:00 PM57 °FMore clouds than sun.15 mph63%30.30 "HgN/A
11:00 AM57 °FMore clouds than sun.15 mph67%30.30 "HgN/A
10:00 AM57 °FBroken clouds.15 mph63%30.30 "HgN/A
9:00 AM55 °FBroken clouds.16 mph67%30.30 "HgN/A
8:00 AM54 °FScattered clouds.10 mph77%30.30 "HgN/A
7:00 AM52 °FScattered clouds.13 mph82%30.27 "HgN/A
6:00 AM52 °FPassing clouds.12 mph82%30.24 "HgN/A
5:00 AM52 °FPassing clouds.10 mph82%30.21 "HgN/A
4:00 AM52 °FPassing clouds.10 mph82%30.24 "HgN/A
3:00 AM52 °FPassing clouds.15 mph82%30.24 "HgN/A
Weather by CustomWeather, © 2016

See weather overviewHow to use our weather pages